| time (UTC) | temp F | wind direction | speed MPH | gust MPH | rain 1hr in | rain 24hr in | rain mn in | humidity % | barometer mb |
| 20260508211015 | 53 | 0.0 | 0.0 | 0.00 | 0.06 | 0.06 | 57 | 1010.9 | |
| 20260508210015 | 53 | 0.0 | 0.0 | 0.00 | 0.06 | 0.06 | 58 | 1011.0 | |
| 20260508205015 | 53 | 282 | 1.0 | 4.0 | 0.00 | 0.06 | 0.06 | 57 | 1011.1 |
| 20260508204016 | 54 | 0.0 | 0.0 | 0.00 | 0.06 | 0.06 | 57 | 1011.0 | |
| 20260508203015 | 54 | 0.0 | 1.0 | 0.00 | 0.06 | 0.06 | 60 | 1011.0 | |
| 20260508202016 | 54 | 0.0 | 0.0 | 0.00 | 0.06 | 0.06 | 59 | 1010.9 | |
| 20260508201015 | 54 | 282 | 0.0 | 1.0 | 0.00 | 0.06 | 0.06 | 63 | 1011.1 |
| 20260508200016 | 55 | 0.0 | 0.0 | 0.00 | 0.06 | 0.06 | 65 | 1011.0 | |
| 20260508195016 | 55 | 282 | 0.0 | 1.0 | 0.00 | 0.06 | 0.06 | 66 | 1010.9 |
| 20260508194015 | 56 | 0.0 | 0.0 | 0.00 | 0.06 | 0.06 | 68 | 1010.9 | |
| 20260508193036 | 56 | 0.0 | 0.0 | 0.00 | 0.06 | 0.06 | 72 | 1010.9 | |
| 20260508192036 | 57 | 0.0 | 0.0 | 0.00 | 0.06 | 0.06 | 75 | 1010.8 | |
| 20260508191035 | 58 | 0.0 | 1.0 | 0.00 | 0.06 | 0.06 | 78 | 1010.7 | |
| 20260508190015 | 58 | 0.0 | 0.0 | 0.00 | 0.06 | 0.06 | 78 | 1010.6 | |
| 20260508185016 | 58 | 0.0 | 0.0 | 0.00 | 0.06 | 0.06 | 79 | ||
| 20260508184015 | 58 | 0.0 | 0.0 | 0.00 | 0.06 | 0.06 | 80 | ||
| 20260508183015 | 59 | 0.0 | 0.0 | 0.00 | 0.06 | 0.06 | 79 | ||
| 20260508182015 | 58 | 0.0 | 0.0 | 0.00 | 0.06 | 0.06 | 79 | ||
| 20260508181015 | 58 | 0.0 | 0.0 | 0.00 | 0.06 | 0.06 | 78 | ||
| 20260508180015 | 58 | 0.0 | 0.0 | 0.00 | 0.06 | 0.06 | 79 | ||
| 20260508175016 | 58 | 0.0 | 0.0 | 0.00 | 0.06 | 0.06 | 78 | ||
| 20260508174015 | 58 | 0.0 | 0.0 | 0.00 | 0.06 | 0.06 | 77 | ||
| 20260508173015 | 58 | 0.0 | 1.0 | 0.00 | 0.06 | 0.06 | 78 | ||
| 20260508172036 | 58 | 0.0 | 1.0 | 0.00 | 0.06 | 0.06 | 78 | ||
| 20260508171015 | 58 | 0.0 | 0.0 | 0.00 | 0.06 | 0.06 | 76 | ||
| 20260508170035 | 58 | 0.0 | 0.0 | 0.00 | 0.06 | 0.06 | 76 | ||
| 20260508165016 | 58 | 0.0 | 0.0 | 0.00 | 0.06 | 0.06 | 76 | ||
| 20260508164015 | 59 | 0.0 | 0.0 | 0.00 | 0.06 | 0.06 | 76 | ||
| 20260508163015 | 59 | 282 | 0.0 | 1.0 | 0.00 | 0.06 | 0.06 | 78 | |
| 20260508162035 | 59 | 282 | 0.0 | 1.0 | 0.00 | 0.06 | 0.06 | 78 | |
| 20260508161015 | 59 | 0.0 | 0.0 | 0.00 | 0.06 | 0.06 | 77 | ||
| 20260508160015 | 59 | 0.0 | 0.0 | 0.02 | 0.06 | 0.06 | 76 | ||
| 20260508155015 | 59 | 0.0 | 2.0 | 0.05 | 0.06 | 0.06 | 75 | ||
| 20260508154015 | 58 | 282 | 0.0 | 1.0 | 0.06 | 0.06 | 0.06 | 73 | |
| 20260508153015 | 58 | 0.0 | 1.0 | 0.06 | 0.06 | 0.06 | 75 | ||
| 20260508152015 | 58 | 0.0 | 0.0 | 0.06 | 0.06 | 0.06 | 77 | ||
| 20260508151015 | 58 | 0.0 | 3.0 | 0.06 | 0.06 | 0.06 | 79 | ||
| 20260508150015 | 58 | 282 | 0.0 | 6.0 | 0.03 | 0.04 | 0.04 | 80 | |
| 20260508145015 | 59 | 282 | 4.0 | 10.0 | 0.01 | 0.02 | 0.02 | 80 | |
| 20260508144035 | 60 | 283 | 4.0 | 12.0 | 0.00 | 0.01 | 0.01 | 79 | |
| 20260508143015 | 61 | 283 | 6.0 | 15.0 | 0.00 | 0.01 | 0.01 | 77 | |
| 20260508142016 | 62 | 283 | 2.0 | 10.0 | 0.00 | 0.01 | 0.01 | 75 | 1009.6 |
| 20260508141015 | 62 | 283 | 2.0 | 8.0 | 0.00 | 0.01 | 0.01 | 73 | 1009.7 |
| 20260508140015 | 63 | 283 | 5.0 | 13.0 | 0.00 | 0.02 | 0.01 | 70 | 1009.8 |
| 20260508135015 | 64 | 283 | 1.0 | 6.0 | 0.00 | 0.02 | 0.01 | 71 | 1009.8 |
| 20260508134015 | 63 | 283 | 1.0 | 3.0 | 0.00 | 0.02 | 0.01 | 74 | 1009.8 |
| 20260508133015 | 61 | 283 | 2.0 | 8.0 | 0.00 | 0.02 | 0.01 | 76 | 1009.8 |
| 20260508132015 | 62 | 283 | 1.0 | 5.0 | 0.00 | 0.02 | 0.01 | 76 | 1009.7 |
| 20260508131015 | 63 | 283 | 1.0 | 7.0 | 0.00 | 0.02 | 0.01 | 75 | 1009.8 |
| 20260508130015 | 63 | 283 | 1.0 | 3.0 | 0.00 | 0.02 | 0.01 | 75 | 1009.9 |
| 20260508125015 | 63 | 283 | 2.0 | 8.0 | 0.00 | 0.02 | 0.01 | 74 | 1009.9 |
| 20260508124015 | 64 | 283 | 1.0 | 6.0 | 0.00 | 0.02 | 0.01 | 72 | 1009.8 |
| 20260508123015 | 64 | 0.0 | 3.0 | 0.00 | 0.02 | 0.01 | 73 | 1009.7 | |
| 20260508122015 | 64 | 283 | 2.0 | 5.0 | 0.00 | 0.02 | 0.01 | 74 | 1009.8 |
| 20260508121015 | 64 | 283 | 1.0 | 5.0 | 0.00 | 0.02 | 0.01 | 73 | 1009.8 |
| 20260508120015 | 64 | 283 | 0.0 | 4.0 | 0.00 | 0.02 | 0.01 | 73 | 1009.8 |
| 20260508115015 | 64 | 283 | 0.0 | 2.0 | 0.00 | 0.02 | 0.01 | 75 | 1009.9 |
| 20260508114014 | 63 | 283 | 0.0 | 4.0 | 0.00 | 0.02 | 0.01 | 74 | 1010.0 |
| 20260508113015 | 63 | 282 | 1.0 | 6.0 | 0.00 | 0.02 | 0.01 | 75 | 1010.2 |
| 20260508112015 | 62 | 282 | 1.0 | 7.0 | 0.00 | 0.02 | 0.01 | 76 | 1010.3 |
| 20260508111015 | 62 | 282 | 3.0 | 6.0 | 0.00 | 0.02 | 0.01 | 77 | 1010.4 |
| 20260508110015 | 61 | 282 | 2.0 | 6.0 | 0.00 | 0.02 | 0.01 | 79 | 1010.5 |
| 20260508105037 | 61 | 282 | 1.0 | 4.0 | 0.00 | 0.02 | 0.01 | 80 | 1010.4 |
| 20260508104015 | 60 | 282 | 3.0 | 7.0 | 0.00 | 0.02 | 0.01 | 80 | 1010.5 |
| 20260508103018 | 60 | 0.0 | 0.0 | 0.00 | 0.02 | 0.01 | 79 | 1010.6 | |
| 20260508102015 | 59 | 0.0 | 0.0 | 0.00 | 0.02 | 0.01 | 78 | 1010.5 | |
| 20260508101017 | 58 | 0.0 | 0.0 | 0.00 | 0.02 | 0.01 | 76 | 1010.4 | |
| 20260508100015 | 58 | 0.0 | 1.0 | 0.01 | 0.02 | 0.01 | 73 | 1010.4 | |
| 20260508095017 | 58 | 282 | 0.0 | 2.0 | 0.01 | 0.02 | 0.01 | 72 | 1010.3 |
| 20260508094037 | 58 | 282 | 0.0 | 1.0 | 0.01 | 0.02 | 0.01 | 70 | 1010.3 |
| 20260508093017 | 58 | 0.0 | 0.0 | 0.01 | 0.02 | 0.01 | 70 | 1010.4 | |
| 20260508092017 | 58 | 0.0 | 0.0 | 0.01 | 0.02 | 0.01 | 69 | 1010.5 | |
| 20260508091017 | 57 | 0.0 | 0.0 | 0.01 | 0.02 | 0.01 | 73 | 1010.4 | |
| 20260508090017 | 57 | 282 | 0.0 | 1.0 | 0.00 | 0.01 | 0.00 | 74 | 1010.2 |
| 20260508085037 | 57 | 0.0 | 0.0 | 0.00 | 0.01 | 0.00 | 73 | 1010.2 | |
| 20260508084017 | 57 | 0.0 | 0.0 | 0.00 | 0.01 | 0.00 | 73 | 1010.3 | |
| 20260508083017 | 57 | 0.0 | 0.0 | 0.00 | 0.01 | 0.00 | 68 | 1010.3 | |
| 20260508082017 | 56 | 0.0 | 0.0 | 0.00 | 0.01 | 0.00 | 62 | 1010.3 | |
| 20260508081016 | 56 | 0.0 | 0.0 | 0.00 | 0.01 | 0.00 | 55 | 1010.3 | |
| 20260508080017 | 56 | 0.0 | 0.0 | 0.00 | 0.01 | 0.00 | 52 | 1010.4 | |
| 20260508075017 | 55 | 0.0 | 0.0 | 0.00 | 0.01 | 0.00 | 48 | 1010.3 | |
| 20260508074017 | 55 | 0.0 | 0.0 | 0.00 | 0.01 | 0.00 | 48 | 1010.3 | |
| 20260508073017 | 54 | 0.0 | 1.0 | 0.00 | 0.01 | 0.00 | 49 | 1010.3 | |
| 20260508072016 | 54 | 282 | 3.0 | 6.0 | 0.00 | 0.01 | 0.00 | 46 | 1010.1 |
| 20260508071016 | 54 | 282 | 2.0 | 4.0 | 0.00 | 0.01 | 0.00 | 43 | 1009.8 |
| 20260508070017 | 54 | 282 | 1.0 | 4.0 | 0.00 | 0.01 | 0.00 | 41 | 1009.7 |
| 20260508065017 | 54 | 282 | 1.0 | 3.0 | 0.00 | 0.01 | 0.00 | 38 | 1009.6 |
| 20260508064015 | 54 | 282 | 1.0 | 4.0 | 0.00 | 0.01 | 0.00 | 32 | 1009.5 |
| 20260508063017 | 53 | 282 | 2.0 | 4.0 | 0.00 | 0.01 | 0.00 | 30 | 1009.3 |
| 20260508062016 | 0 | 0.0 | 0.0 | 0.00 | 0.01 | 0.00 | |||
| 20260508061017 | 0 | 0.0 | 0.0 | 0.00 | 0.01 | 0.00 | |||
| 20260508055516 | 0 | 0.0 | 0.0 | 0.00 | 0.01 | 0.00 | |||
| 20260508054556 | 0 | 0.0 | 0.0 | 0.00 | 0.01 | 0.00 | |||
| 20260508053017 | 0 | 0.0 | 0.0 | 0.00 | 0.01 | 0.00 | |||
| 20260508052017 | 0 | 0.0 | 0.0 | 0.00 | 0.01 | 0.00 | |||
| 20260508050517 | 0 | 0.0 | 0.0 | 0.00 | 0.01 | 0.00 | |||
| 20260508045516 | 0 | 0.0 | 0.0 | 0.00 | 0.01 | 0.00 | |||
| 20260508044016 | 0 | 0.0 | 0.0 | 0.00 | 0.01 | 0.00 | |||
| 20260508043017 | 0 | 0.0 | 0.0 | 0.00 | 0.01 | 0.00 | |||
| 20260508041517 | 0 | 0.0 | 0.0 | 0.00 | 0.01 | 0.00 | |||
| 20260508040517 | 0 | 0.0 | 0.0 | 0.00 | 0.01 | 0.00 | |||
| 20260508035037 | 0 | 0.0 | 0.0 | 0.00 | 0.01 | 0.00 | |||
| 20260508034016 | 0 | 0.0 | 0.0 | 0.00 | 0.01 | 0.00 | |||
| 20260508032518 | 0 | 0.0 | 0.0 | 0.00 | 0.01 | 0.00 | |||
| 20260508031556 | 0 | 0.0 | 0.0 | 0.00 | 0.01 | 0.00 | |||
| 20260508030017 | 0 | 0.0 | 0.0 | 0.00 | 0.01 | 0.00 | |||
| 20260508025017 | 0 | 0.0 | 0.0 | 0.00 | 0.01 | 0.00 | |||
| 20260508023517 | 0 | 0.0 | 0.0 | 0.00 | 0.01 | 0.00 | |||
| 20260508022536 | 0 | 0.0 | 0.0 | 0.00 | 0.01 | 0.00 | |||
| 20260508021016 | 0 | 0.0 | 0.0 | 0.00 | 0.01 | 0.00 | |||
| 20260508020016 | 52 | 139 | 1.0 | 1.0 | 0.00 | 0.01 | 0.00 | 20 | 1009.6 |
| 20260508014517 | 52 | 138 | 0.0 | 1.0 | 0.00 | 0.01 | 0.00 | 19 | 1009.6 |
| 20260508013517 | 52 | 138 | 0.0 | 1.0 | 0.00 | 0.01 | 0.00 | 20 | 1009.8 |
| 20260508012536 | 53 | 0.0 | 0.0 | 0.00 | 0.01 | 0.00 | 22 | 1010.0 | |
| 20260508011517 | 53 | 138 | 0.0 | 4.0 | 0.00 | 0.01 | 0.00 | 21 | 1010.2 |
| 20260508010516 | 53 | 138 | 2.0 | 4.0 | 0.00 | 0.01 | 0.00 | 22 | 1010.4 |
| 20260508005517 | 53 | 0.0 | 0.0 | 0.00 | 0.01 | 0.00 | 23 | 1010.4 | |
| 20260508004517 | 53 | 0.0 | 0.0 | 0.00 | 0.01 | 0.00 | 25 | 1010.4 | |
| 20260508003517 | 53 | 0.0 | 0.0 | 0.00 | 0.01 | 0.00 | 26 | 1010.6 | |
| 20260508002516 | 53 | 138 | 0.0 | 4.0 | 0.00 | 0.01 | 0.00 | 24 | 1010.8 |
| 20260508001517 | 53 | 138 | 3.0 | 5.0 | 0.00 | 0.01 | 0.00 | 26 | 1011.0 |
| 20260508000517 | 53 | 0.0 | 0.0 | 0.00 | 0.01 | 0.00 | 30 | 1010.9 | |
| 20260507235558 | 53 | 0.0 | 0.0 | 0.00 | 0.01 | 0.00 | 29 | 1011.0 | |
| 20260507234516 | 53 | 138 | 1.0 | 2.0 | 0.00 | 0.01 | 0.00 | 31 | 1011.1 |
| 20260507233516 | 54 | 0.0 | 0.0 | 0.00 | 0.01 | 0.00 | 33 | 1011.1 | |
| 20260507232516 | 54 | 0.0 | 0.0 | 0.00 | 0.01 | 0.00 | 30 | 1011.2 | |
| 20260507231516 | 54 | 0.0 | 1.0 | 0.00 | 0.01 | 0.00 | 31 | 1011.2 | |
| 20260507230517 | 54 | 0.0 | 0.0 | 0.00 | 0.01 | 0.00 | 30 | 1011.2 | |
| 20260507225517 | 54 | 0.0 | 0.0 | 0.00 | 0.01 | 0.00 | 32 | 1011.2 | |
| 20260507224516 | 54 | 0.0 | 0.0 | 0.00 | 0.01 | 0.00 | 40 | 1011.3 | |
| 20260507223516 | 54 | 0.0 | 1.0 | 0.00 | 0.01 | 0.00 | 40 | 1011.4 | |
| 20260507222516 | 54 | 0.0 | 0.0 | 0.00 | 0.01 | 0.00 | 43 | 1011.5 | |
| 20260507221516 | 54 | 0.0 | 0.0 | 0.00 | 0.01 | 0.00 | 44 | 1011.5 | |
| 20260507220516 | 55 | 0.0 | 0.0 | 0.00 | 0.01 | 0.00 | 43 | 1011.5 | |
| 20260507215515 | 55 | 0.0 | 0.0 | 0.00 | 0.01 | 0.01 | 43 | 1011.5 | |
| 20260507214515 | 55 | 0.0 | 0.0 | 0.00 | 0.01 | 0.01 | 47 | 1011.5 | |
| 20260507213515 | 55 | 0.0 | 0.0 | 0.00 | 0.01 | 0.01 | 50 | 1011.5 | |
| 20260507212516 | 55 | 0.0 | 0.0 | 0.00 | 0.01 | 0.01 | 52 | 1011.5 |